Home > Weather > Selkirk > Past weeks

Flag for Canada Weather for the Past 2 Weeks in Selkirk, Manitoba, Canada

Now
30 °F

Chilly.


Feels Like: 27 °F
Forecast: 7 / 30 °F
Wind: 3 mph from Southwest

Location: Winnipeg The Forks Man

Current Time: Feb 6, 2016 at 11:10:42 PM

Latest Report: Feb 6, 2016 at 10:00 PM


Visibility: N/A

Pressure: 29.40 "Hg

Humidity: 88%

Dew point: 27 °F

Location of SelkirkLocation

Historic Weather in Selkirk — Graph

°F

Selkirk Temperature Yesterday

Maximum temperature yesterday: 22 °F (at 4:00 PM)
Minimum temperature yesterday: 13 °F (at 8:00 AM)
Average temperature yesterday: 18 °F

High & Low Weather Summary for the Past Weeks

 TemperatureHumidityPressure
High38 °F (Jan 27, 4:00 PM)98% (Jan 31, 3:00 AM)30.30 "Hg (Jan 31, 3:00 AM)
Low5 °F (Jan 28, 9:00 AM)62% (Jan 26, 4:00 PM)29.19 "Hg (Jan 30, 1:00 AM)
Average20 °F81%29.87 "Hg
* Reported Jan 22 10:00 PM — Feb 6 10:00 PM, Selkirk, Weather by CustomWeather, © 2016

Note: Actual official high and low records may vary slightly from our data, if they occured in-between our weather recording intervals... More about our weather records

Advertising

Selkirk Weather History for the Previous 24 Hours

 ConditionsComfort  
Time TempWeatherWind HumidityBarometerVisibility
10:00 PM
Sat, Feb 6
30 °FChilly.3 mph88%29.40 "HgN/A
9:00 PM31 °FChilly.2 mph87%29.42 "HgN/A
8:00 PM31 °FChilly.1 mph84%29.46 "HgN/A
7:00 PM32 °FChilly.1 mph81%29.49 "HgN/A
6:00 PM31 °FChilly.1 mph83%29.52 "HgN/A
5:00 PM31 °FChilly.2 mph87%29.54 "HgN/A
4:00 PM31 °FChilly.2 mph79%29.57 "HgN/A
3:00 PM30 °FChilly.2 mph78%29.58 "HgN/A
2:00 PM29 °FChilly.2 mph78%29.62 "HgN/A
1:00 PM29 °FChilly.2 mph73%29.68 "HgN/A
12:00 PM27 °FChilly.5 mph80%29.71 "HgN/A
11:00 AM25 °FChilly.5 mph81%29.76 "HgN/A
10:00 AM23 °FCold.5 mph82%29.80 "HgN/A
9:00 AM22 °FCold.6 mph83%29.82 "HgN/A
8:00 AM20 °FCold.3 mph86%29.85 "HgN/A
7:00 AM20 °FCold.3 mph86%29.89 "HgN/A
6:00 AM18 °FCold.2 mph88%29.91 "HgN/A
5:00 AM19 °FCold.3 mph87%29.93 "HgN/A
4:00 AM19 °FCold.2 mph86%29.96 "HgN/A
3:00 AM19 °FCold.1 mph85%29.98 "HgN/A
2:00 AM18 °FCold.3 mph85%30.01 "HgN/A
1:00 AM18 °FCold.1 mph85%30.03 "HgN/A
12:00 AM19 °FCold.1 mph84%30.06 "HgN/A
11:00 PM
Fri, Feb 5
19 °FCold.1 mph84%30.06 "HgN/A
Weather by CustomWeather, © 2016

See weather overviewHow to use our weather pages